Overview Statistics Trail Chart Weather Telemetry Raw packets
 

This is the latest recevied weather packets stored in our database for station/object VE3DVC. If no packets are shown the sender has not sent any weather packets the latest 10 day(s).

<< 16 17 18 19 20 21 22 >>
Time Temp. Humidity Pressure Rain* Wind** Luminosity Snow
1788371476 27.78° C 89% 1013.9 hPa 0 mm - - -
1788370755 27.22° C 90% 1014.4 hPa 0 mm - - -
1788370036 27.22° C 90% 1014.6 hPa 0 mm - - -
1788369328 26.67° C 91% 1014.7 hPa 0 mm - - -
1788368595 26.11° C 92% 1014.9 hPa 0 mm - - -
1788367875 26.11° C 92% 1015.1 hPa 0 mm - - -
1788366810 25° C 92% 1015.2 hPa 0 mm - - -
1788366090 25° C 91% 1015.2 hPa 0 mm - - -
1788365370 24.44° C 90% 1015.4 hPa 0 mm - - -
1788364653 24.44° C 90% 1015.4 hPa 0 mm - - -
1788363606 23.89° C 90% 1015.6 hPa 0 mm - - -
1788362885 23.89° C 90% 1015.5 hPa 0 mm - - -
1788362166 23.33° C 90% 1015.4 hPa 0 mm - - -
1788361445 23.33° C 90% 1015.5 hPa 0 mm - - -
1788360726 23.33° C 90% 1015.4 hPa 0 mm - - -
1788360006 22.78° C 90% 1015.5 hPa 0 mm - - -
1788359286 22.78° C 90% 1015.5 hPa 0 mm - - -
1788358566 22.22° C 90% 1015.4 hPa 0 mm - - -
1788357846 22.22° C 90% 1015.3 hPa 0 mm - - -
1788357126 22.22° C 90% 1015.3 hPa 0 mm - - -
1788356405 22.22° C 90% 1015.3 hPa 0 mm - - -
1788355686 22.22° C 90% 1015.5 hPa 0 mm - - -
1788354966 22.22° C 90% 1015.3 hPa 0 mm - - -
1788354245 22.22° C 91% 1015.3 hPa 0 mm - - -
1788353526 22.22° C 90% 1015.4 hPa 0 mm - - -

* Rain latest hour (hover to see other rain measurements)
** Current wind speed in m/s (hover to see current wind gust speed)